Year,Month,Day,Hour,Minute,Value (Times are PST for temperature in C)
2020,02,27,00,00,-14.40
2020,02,27,00,01,-14.40
2020,02,27,00,02,-14.40
2020,02,27,00,03,-14.40
2020,02,27,00,04,-14.40
2020,02,27,00,05,-14.30
2020,02,27,00,06,-14.30
2020,02,27,00,07,-14.30
2020,02,27,00,08,-14.30
2020,02,27,00,09,-14.30
2020,02,27,00,10,-14.30
2020,02,27,00,11,-14.30
2020,02,27,00,12,-14.40
2020,02,27,00,13,-14.40
2020,02,27,00,14,-14.40
2020,02,27,00,15,-14.40
2020,02,27,00,16,-14.40
2020,02,27,00,17,-14.40
2020,02,27,00,18,-14.40
2020,02,27,00,19,-14.40
2020,02,27,00,20,-14.50
2020,02,27,00,21,-14.50
2020,02,27,00,22,-14.50
2020,02,27,00,23,-14.50
2020,02,27,00,24,-14.60
2020,02,27,00,25,-14.60
2020,02,27,00,26,-14.60
2020,02,27,00,27,-14.60
2020,02,27,00,28,-14.70
2020,02,27,00,29,-14.70
2020,02,27,00,30,-14.70
2020,02,27,00,31,-14.70
2020,02,27,00,32,-14.70
2020,02,27,00,33,-14.70
2020,02,27,00,34,-14.70
2020,02,27,00,35,-14.70
2020,02,27,00,36,-14.70
2020,02,27,00,37,-14.70
2020,02,27,00,38,-14.70
2020,02,27,00,39,-14.70
2020,02,27,00,40,-14.60
2020,02,27,00,41,-14.60
2020,02,27,00,42,-14.60
2020,02,27,00,43,-14.60
2020,02,27,00,44,-14.60
2020,02,27,00,45,-14.60
2020,02,27,00,46,-14.60
2020,02,27,00,47,-14.60
2020,02,27,00,48,-14.60
2020,02,27,00,49,-14.60
2020,02,27,00,50,-14.70
2020,02,27,00,51,-14.70
2020,02,27,00,52,-14.70
2020,02,27,00,53,-14.70
2020,02,27,00,54,-14.80
2020,02,27,00,55,-14.80
2020,02,27,00,56,-14.80
2020,02,27,00,57,-14.80
2020,02,27,00,58,-14.90
2020,02,27,00,59,-14.90
2020,02,27,01,00,-14.90
2020,02,27,01,01,-14.90
2020,02,27,01,02,-14.90
2020,02,27,01,03,-14.90
2020,02,27,01,04,-14.90
2020,02,27,01,05,-14.90
2020,02,27,01,06,-14.90
2020,02,27,01,07,-15.00
2020,02,27,01,08,-15.00
2020,02,27,01,09,-15.00
2020,02,27,01,10,-15.00
2020,02,27,01,11,-15.00
2020,02,27,01,12,-15.00
2020,02,27,01,13,-15.10
2020,02,27,01,14,-15.10
2020,02,27,01,15,-15.10
2020,02,27,01,16,-15.10
2020,02,27,01,17,-15.10
2020,02,27,01,18,-15.10
2020,02,27,01,19,-15.10
2020,02,27,01,20,-15.10
2020,02,27,01,21,-15.10
2020,02,27,01,22,-15.10
2020,02,27,01,23,-15.10
2020,02,27,01,24,-15.10
2020,02,27,01,25,-15.10
2020,02,27,01,26,-15.10
2020,02,27,01,27,-15.10
2020,02,27,01,28,-15.10
2020,02,27,01,29,-15.00
2020,02,27,01,30,-15.00
2020,02,27,01,31,-15.00
2020,02,27,01,32,-15.00
2020,02,27,01,33,-15.00
2020,02,27,01,34,-15.00
2020,02,27,01,35,-15.00
2020,02,27,01,36,-15.00
2020,02,27,01,37,-15.00
2020,02,27,01,38,-15.00
2020,02,27,01,39,-15.00
2020,02,27,01,40,-14.90
2020,02,27,01,41,-15.00
2020,02,27,01,42,-14.90
2020,02,27,01,43,-14.90
2020,02,27,01,44,-14.90
2020,02,27,01,45,-14.90
2020,02,27,01,46,-14.90
2020,02,27,01,47,-15.00
2020,02,27,01,48,-15.00
2020,02,27,01,49,-15.00
2020,02,27,01,50,-15.00
2020,02,27,01,51,-15.00
2020,02,27,01,52,-15.10
2020,02,27,01,53,-15.10
2020,02,27,01,54,-15.10
2020,02,27,01,55,-15.10
2020,02,27,01,56,-15.10
2020,02,27,01,57,-15.10
2020,02,27,01,58,-15.10
2020,02,27,01,59,-15.10
2020,02,27,02,00,-15.10
2020,02,27,02,01,-15.10
2020,02,27,02,02,-15.10
2020,02,27,02,03,-15.20
2020,02,27,02,04,-15.20
2020,02,27,02,05,-15.20
2020,02,27,02,06,-15.20
2020,02,27,02,07,-15.20
2020,02,27,02,08,-15.20
2020,02,27,02,09,-15.20
2020,02,27,02,10,-15.10
2020,02,27,02,11,-15.20
2020,02,27,02,12,-15.20
2020,02,27,02,13,-15.10
2020,02,27,02,14,-15.20
2020,02,27,02,15,-15.20
2020,02,27,02,16,-15.20
2020,02,27,02,17,-15.20
2020,02,27,02,18,-15.20
2020,02,27,02,19,-15.20
2020,02,27,02,20,-15.20
2020,02,27,02,21,-15.20
2020,02,27,02,22,-15.20
2020,02,27,02,23,-15.20
2020,02,27,02,24,-15.20
2020,02,27,02,25,-15.20
2020,02,27,02,26,-15.20
2020,02,27,02,27,-15.20
2020,02,27,02,28,-15.20
2020,02,27,02,29,-15.20
2020,02,27,02,30,-15.20
2020,02,27,02,31,-15.20
2020,02,27,02,32,-15.20
2020,02,27,02,33,-15.20
2020,02,27,02,34,-15.20
2020,02,27,02,35,-15.20
2020,02,27,02,36,-15.20
2020,02,27,02,37,-15.20
2020,02,27,02,38,-15.20
2020,02,27,02,39,-15.20
2020,02,27,02,40,-15.20
2020,02,27,02,41,-15.30
2020,02,27,02,42,-15.20
2020,02,27,02,43,-15.20
2020,02,27,02,44,-15.20
2020,02,27,02,45,-15.20
2020,02,27,02,46,-15.20
2020,02,27,02,47,-15.20
2020,02,27,02,48,-15.20
2020,02,27,02,49,-15.20
2020,02,27,02,50,-15.20
2020,02,27,02,51,-15.20
2020,02,27,02,52,-15.30
2020,02,27,02,53,-15.30
2020,02,27,02,54,-15.30
2020,02,27,02,55,-15.30
2020,02,27,02,56,-15.30
2020,02,27,02,57,-15.30
2020,02,27,02,58,-15.30
2020,02,27,02,59,-15.30
2020,02,27,03,00,-15.30
2020,02,27,03,01,-15.30
2020,02,27,03,02,-15.30
2020,02,27,03,03,-15.40
2020,02,27,03,04,-15.40
2020,02,27,03,05,-15.40
2020,02,27,03,06,-15.40
2020,02,27,03,07,-15.40
2020,02,27,03,08,-15.40
2020,02,27,03,09,-15.40
2020,02,27,03,10,-15.40
2020,02,27,03,11,-15.40
2020,02,27,03,12,-15.40
2020,02,27,03,13,-15.40
2020,02,27,03,14,-15.40
2020,02,27,03,15,-15.40
2020,02,27,03,16,-15.40
2020,02,27,03,17,-15.40
2020,02,27,03,18,-15.40
2020,02,27,03,19,-15.40
2020,02,27,03,20,-15.50
2020,02,27,03,21,-15.50
2020,02,27,03,22,-15.50
2020,02,27,03,23,-15.50
2020,02,27,03,24,-15.50
2020,02,27,03,25,-15.50
2020,02,27,03,26,-15.50
2020,02,27,03,27,-15.50
2020,02,27,03,28,-15.50
2020,02,27,03,29,-15.60
2020,02,27,03,30,-15.60
2020,02,27,03,31,-15.60
2020,02,27,03,32,-15.60
2020,02,27,03,33,-15.60
2020,02,27,03,34,-15.60
2020,02,27,03,35,-15.60
2020,02,27,03,36,-15.60
2020,02,27,03,37,-15.60
2020,02,27,03,38,-15.60
2020,02,27,03,39,-15.60
2020,02,27,03,40,-15.60
2020,02,27,03,41,-15.60
2020,02,27,03,42,-15.60
2020,02,27,03,43,-15.60
2020,02,27,03,44,-15.60
2020,02,27,03,45,-15.60
2020,02,27,03,46,-15.60
2020,02,27,03,47,-15.60
2020,02,27,03,48,-15.60
2020,02,27,03,49,-15.60
2020,02,27,03,50,-15.60
2020,02,27,03,51,-15.60
2020,02,27,03,52,-15.60
2020,02,27,03,53,-15.60
2020,02,27,03,54,-15.60
2020,02,27,03,55,-15.70
2020,02,27,03,56,-15.70
2020,02,27,03,57,-15.70
2020,02,27,03,58,-15.70
2020,02,27,03,59,-15.70
2020,02,27,04,00,-15.70
2020,02,27,04,01,-15.70
2020,02,27,04,02,-15.70
2020,02,27,04,03,-15.80
2020,02,27,04,04,-15.80
2020,02,27,04,05,-15.80
2020,02,27,04,06,-15.80
2020,02,27,04,07,-15.80
2020,02,27,04,08,-15.80
2020,02,27,04,09,-15.80
2020,02,27,04,10,-15.80
2020,02,27,04,11,-15.80
2020,02,27,04,12,-15.80
2020,02,27,04,13,-15.80
2020,02,27,04,14,-15.80
2020,02,27,04,15,-15.80
2020,02,27,04,16,-15.80
2020,02,27,04,17,-15.80
2020,02,27,04,18,-15.80
2020,02,27,04,19,-15.80
2020,02,27,04,20,-15.90
2020,02,27,04,21,-15.90
2020,02,27,04,22,-15.90
2020,02,27,04,23,-15.90
2020,02,27,04,24,-15.90
2020,02,27,04,25,-15.90
2020,02,27,04,26,-15.90
2020,02,27,04,27,-15.90
2020,02,27,04,28,-15.90
2020,02,27,04,29,-15.90
2020,02,27,04,30,-15.90
2020,02,27,04,31,-16.00
2020,02,27,04,32,-16.00
2020,02,27,04,33,-16.00
2020,02,27,04,34,-16.00
2020,02,27,04,35,-16.00
2020,02,27,04,36,-16.00
2020,02,27,04,37,-15.90
2020,02,27,04,38,-16.00
2020,02,27,04,39,-16.00
2020,02,27,04,40,-16.00
2020,02,27,04,41,-16.10
2020,02,27,04,42,-16.10
2020,02,27,04,43,-16.10
2020,02,27,04,44,-16.10
2020,02,27,04,45,-16.10
2020,02,27,04,46,-16.10
2020,02,27,04,47,-16.10
2020,02,27,04,48,-16.10
2020,02,27,04,49,-16.10
2020,02,27,04,50,-16.10
2020,02,27,04,51,-16.10
2020,02,27,04,52,-16.20
2020,02,27,04,53,-16.20
2020,02,27,04,54,-16.20
2020,02,27,04,55,-16.20
2020,02,27,04,56,-16.20
2020,02,27,04,57,-16.20
2020,02,27,04,58,-16.20
2020,02,27,04,59,-16.20
2020,02,27,05,00,-16.20
2020,02,27,05,01,-16.20
2020,02,27,05,02,-16.20
2020,02,27,05,03,-16.30
2020,02,27,05,04,-16.30
2020,02,27,05,05,-16.30
2020,02,27,05,06,-16.30
2020,02,27,05,07,-16.30
2020,02,27,05,08,-16.30
2020,02,27,05,09,-16.30
2020,02,27,05,10,-16.30
2020,02,27,05,11,-16.30
2020,02,27,05,12,-16.30
2020,02,27,05,13,-16.30
2020,02,27,05,14,-16.30
2020,02,27,05,15,-16.30
2020,02,27,05,16,-16.30
2020,02,27,05,17,-16.30
2020,02,27,05,18,-16.30
2020,02,27,05,19,-16.30
2020,02,27,05,20,-16.30
2020,02,27,05,21,-16.30
2020,02,27,05,22,-16.40
2020,02,27,05,23,-16.40
2020,02,27,05,24,-16.40
2020,02,27,05,25,-16.40
2020,02,27,05,26,-16.40
2020,02,27,05,27,-16.40
2020,02,27,05,28,-16.40
2020,02,27,05,29,-16.40
2020,02,27,05,30,-16.40
2020,02,27,05,31,-16.40
2020,02,27,05,32,-16.40
2020,02,27,05,33,-16.40
2020,02,27,05,34,-16.40
2020,02,27,05,35,-16.40
2020,02,27,05,36,-16.40
2020,02,27,05,37,-16.40
2020,02,27,05,38,-16.40
2020,02,27,05,39,-16.40
2020,02,27,05,40,-16.50
2020,02,27,05,41,-16.50
2020,02,27,05,42,-16.50
2020,02,27,05,43,-16.50
2020,02,27,05,44,-16.60
2020,02,27,05,45,-16.60
2020,02,27,05,46,-16.60
2020,02,27,05,47,-16.60
2020,02,27,05,48,-16.60
2020,02,27,05,49,-16.70
2020,02,27,05,50,-16.70
2020,02,27,05,51,-16.70
2020,02,27,05,52,-16.70
2020,02,27,05,53,-16.70
2020,02,27,05,54,-16.70
2020,02,27,05,55,-16.70
2020,02,27,05,56,-16.70
2020,02,27,05,57,-16.70
2020,02,27,05,58,-16.70
2020,02,27,05,59,-16.70
2020,02,27,06,00,-16.70
2020,02,27,06,01,-16.70
2020,02,27,06,02,-16.70
2020,02,27,06,03,-16.80
2020,02,27,06,04,-16.80
2020,02,27,06,05,-16.80
2020,02,27,06,06,-16.80
2020,02,27,06,07,-16.80
2020,02,27,06,08,-16.80
2020,02,27,06,09,-16.80
2020,02,27,06,10,-16.80
2020,02,27,06,11,-16.80
2020,02,27,06,12,-16.90
2020,02,27,06,13,-16.90
2020,02,27,06,14,-16.90
2020,02,27,06,15,-16.90
2020,02,27,06,16,-16.90
2020,02,27,06,17,-16.90
2020,02,27,06,18,-16.90
2020,02,27,06,19,-16.90
2020,02,27,06,20,-16.80
2020,02,27,06,21,-16.80
2020,02,27,06,22,-16.80
2020,02,27,06,23,-16.80
2020,02,27,06,24,-16.80
2020,02,27,06,25,-16.80
2020,02,27,06,26,-16.80
2020,02,27,06,27,-16.80
2020,02,27,06,28,-16.90
2020,02,27,06,29,-16.80
2020,02,27,06,30,-16.80
2020,02,27,06,31,-16.90
2020,02,27,06,32,-16.90
2020,02,27,06,33,-16.90
2020,02,27,06,34,-16.90
2020,02,27,06,35,-16.90
2020,02,27,06,36,-16.90
2020,02,27,06,37,-16.90
2020,02,27,06,38,-16.90
2020,02,27,06,39,-17.00
2020,02,27,06,40,-17.00
2020,02,27,06,41,-17.00
2020,02,27,06,42,-17.10
2020,02,27,06,43,-17.10
2020,02,27,06,44,-17.10
2020,02,27,06,45,-17.20
2020,02,27,06,46,-17.20
2020,02,27,06,47,-17.20
2020,02,27,06,48,-17.20
2020,02,27,06,49,-17.20
2020,02,27,06,50,-17.20
2020,02,27,06,51,-17.20
2020,02,27,06,52,-17.20
2020,02,27,06,53,-17.30
2020,02,27,06,54,-17.30
2020,02,27,06,55,-17.30
2020,02,27,06,56,-17.30
2020,02,27,06,57,-17.30
2020,02,27,06,58,-17.30
2020,02,27,06,59,-17.30
2020,02,27,07,00,-17.30
2020,02,27,07,01,-17.30
2020,02,27,07,02,-17.30
2020,02,27,07,03,-17.30
2020,02,27,07,04,-17.30
2020,02,27,07,05,-17.30
2020,02,27,07,06,-17.30
2020,02,27,07,07,-17.30
2020,02,27,07,08,-17.40
2020,02,27,07,09,-17.40
2020,02,27,07,10,-17.40
2020,02,27,07,11,-17.40
2020,02,27,07,12,-17.40
2020,02,27,07,13,-17.40
2020,02,27,07,14,-17.40
2020,02,27,07,15,-17.50
2020,02,27,07,16,-17.50
2020,02,27,07,17,-17.40
2020,02,27,07,18,-17.40
2020,02,27,07,19,-17.40
2020,02,27,07,20,-17.40
2020,02,27,07,21,-17.40
2020,02,27,07,22,-17.50
2020,02,27,07,23,-17.50
2020,02,27,07,24,-17.50
2020,02,27,07,25,-17.50
2020,02,27,07,26,-17.50
2020,02,27,07,27,-17.50
2020,02,27,07,28,-17.50
2020,02,27,07,29,-17.50
2020,02,27,07,30,-17.60
2020,02,27,07,31,-17.60
2020,02,27,07,32,-17.60
2020,02,27,07,33,-17.60
2020,02,27,07,34,-17.60
2020,02,27,07,35,-17.60
2020,02,27,07,36,-17.60
2020,02,27,07,37,-17.60
2020,02,27,07,38,-17.60
2020,02,27,07,39,-17.60
2020,02,27,07,40,-17.60
2020,02,27,07,41,-17.60
2020,02,27,07,42,-17.60
2020,02,27,07,43,-17.70
2020,02,27,07,44,-17.70
2020,02,27,07,45,-17.70
2020,02,27,07,46,-17.70
2020,02,27,07,47,-17.70
2020,02,27,07,48,-17.80
2020,02,27,07,49,-17.80
2020,02,27,07,50,-17.80
2020,02,27,07,51,-17.80
2020,02,27,07,52,-17.80
2020,02,27,07,53,-17.90
2020,02,27,07,54,-17.90
2020,02,27,07,55,-17.90
2020,02,27,07,56,-17.90
2020,02,27,07,57,-18.00
2020,02,27,07,58,-18.00
2020,02,27,07,59,-18.00
2020,02,27,08,00,-18.00
2020,02,27,08,01,-18.10
2020,02,27,08,02,-18.10
2020,02,27,08,03,-18.10
2020,02,27,08,04,-18.10
2020,02,27,08,05,-18.10
2020,02,27,08,06,-18.10
2020,02,27,08,07,-18.10
2020,02,27,08,08,-18.20
2020,02,27,08,09,-18.20
2020,02,27,08,10,-18.20
2020,02,27,08,11,-18.20
2020,02,27,08,12,-18.20
2020,02,27,08,13,-18.30
2020,02,27,08,14,-18.30
2020,02,27,08,15,-18.30
2020,02,27,08,16,-18.30
2020,02,27,08,17,-18.30
2020,02,27,08,18,-18.30
2020,02,27,08,19,-18.30
2020,02,27,08,20,-18.30
2020,02,27,08,21,-18.30
2020,02,27,08,22,-18.30
2020,02,27,08,23,-18.30
2020,02,27,08,24,-18.30
2020,02,27,08,25,-18.30
2020,02,27,08,26,-18.30
2020,02,27,08,27,-18.30
2020,02,27,08,28,-18.40
2020,02,27,08,29,-18.40
2020,02,27,08,30,-18.40
2020,02,27,08,31,-18.40
2020,02,27,08,32,-18.40
2020,02,27,08,33,-18.40
2020,02,27,08,34,-18.40
2020,02,27,08,35,-18.40
2020,02,27,08,36,-18.40
2020,02,27,08,37,-18.40
2020,02,27,08,38,-18.40
2020,02,27,08,39,-18.40
2020,02,27,08,40,-18.40
2020,02,27,08,41,-18.40
2020,02,27,08,42,-18.40
2020,02,27,08,43,-18.50
2020,02,27,08,44,-18.50
2020,02,27,08,45,-18.50
2020,02,27,08,46,-18.60
2020,02,27,08,47,-18.60
2020,02,27,08,48,-18.60
2020,02,27,08,49,-18.60
2020,02,27,08,50,-18.70
2020,02,27,08,51,-18.70
2020,02,27,08,52,-18.70
2020,02,27,08,53,-18.70
2020,02,27,08,54,-18.70
2020,02,27,08,55,-18.60
2020,02,27,08,56,-18.70
2020,02,27,08,57,-18.60
2020,02,27,08,58,-18.60
2020,02,27,08,59,-18.60
2020,02,27,09,00,-18.70
2020,02,27,09,01,-18.70
2020,02,27,09,02,-18.70
2020,02,27,09,03,-18.70
2020,02,27,09,04,-18.70
2020,02,27,09,05,-18.70
2020,02,27,09,06,-18.70
2020,02,27,09,07,-18.70
2020,02,27,09,08,-18.70
2020,02,27,09,09,-18.70
2020,02,27,09,10,-18.70
2020,02,27,09,11,-18.70
2020,02,27,09,12,-18.70
2020,02,27,09,13,-18.70
2020,02,27,09,14,-18.70
2020,02,27,09,15,-18.70
2020,02,27,09,16,-18.70
2020,02,27,09,17,-18.80
2020,02,27,09,18,-18.80
2020,02,27,09,19,-18.80
2020,02,27,09,20,-18.80
2020,02,27,09,21,-18.80
2020,02,27,09,22,-18.80
2020,02,27,09,23,-18.80
2020,02,27,09,24,-18.80
2020,02,27,09,25,-18.80
2020,02,27,09,26,-18.80
2020,02,27,09,27,-18.80
2020,02,27,09,28,-18.80
2020,02,27,09,29,-18.80
2020,02,27,09,30,-18.80
2020,02,27,09,31,-18.70
2020,02,27,09,32,-18.70
2020,02,27,09,33,-18.70
2020,02,27,09,34,-18.70
2020,02,27,09,35,-18.70
2020,02,27,09,36,-18.70
2020,02,27,09,37,-18.70
2020,02,27,09,38,-18.70
2020,02,27,09,39,-18.70
2020,02,27,09,40,-18.70
2020,02,27,09,41,-18.70
2020,02,27,09,42,-18.70
2020,02,27,09,43,-18.70
2020,02,27,09,44,-18.70
2020,02,27,09,45,-18.70
2020,02,27,09,46,-18.70
2020,02,27,09,47,-18.70
2020,02,27,09,48,-18.70
2020,02,27,09,49,-18.70
2020,02,27,09,50,-18.70
2020,02,27,09,51,-18.70
2020,02,27,09,52,-18.80
2020,02,27,09,53,-18.80
2020,02,27,09,54,-18.80
2020,02,27,09,55,-18.80
2020,02,27,09,56,-18.80
2020,02,27,09,57,-18.80
2020,02,27,09,58,-18.80
2020,02,27,09,59,-18.80
2020,02,27,10,00,-18.90
2020,02,27,10,01,-18.90
2020,02,27,10,02,-18.90
2020,02,27,10,03,-18.90
2020,02,27,10,04,-18.90
2020,02,27,10,05,-19.00
2020,02,27,10,06,-19.00
2020,02,27,10,07,-19.00
2020,02,27,10,08,-19.10
2020,02,27,10,09,-19.10
2020,02,27,10,10,-19.10
2020,02,27,10,11,-19.10
2020,02,27,10,12,-19.10
2020,02,27,10,13,-19.10
2020,02,27,10,14,-19.10
2020,02,27,10,15,-19.10
2020,02,27,10,16,-19.10
2020,02,27,10,17,-19.10
2020,02,27,10,18,-19.10
2020,02,27,10,19,-19.00
2020,02,27,10,20,-19.00
2020,02,27,10,21,-19.00
2020,02,27,10,22,-19.00
2020,02,27,10,23,-19.00
2020,02,27,10,24,-19.00
2020,02,27,10,25,-19.00
2020,02,27,10,26,-19.00
2020,02,27,10,27,-19.00
2020,02,27,10,28,-19.00
2020,02,27,10,29,-19.00
2020,02,27,10,30,-19.00
2020,02,27,10,31,-19.00
2020,02,27,10,32,-19.00
2020,02,27,10,33,-19.00
2020,02,27,10,34,-19.00
2020,02,27,10,35,-19.00
2020,02,27,10,36,-19.10
2020,02,27,10,37,-19.10
2020,02,27,10,38,-19.10
2020,02,27,10,39,-19.10
2020,02,27,10,40,-19.10
2020,02,27,10,41,-19.00
2020,02,27,10,42,-19.00
2020,02,27,10,43,-19.00
2020,02,27,10,44,-19.10
2020,02,27,10,45,-19.10
2020,02,27,10,46,-19.10
2020,02,27,10,47,-19.10
2020,02,27,10,48,-19.10
2020,02,27,10,49,-19.10
2020,02,27,10,50,-19.10
2020,02,27,10,51,-19.10
2020,02,27,10,52,-19.10
2020,02,27,10,53,-19.10
2020,02,27,10,54,-19.10
2020,02,27,10,55,-19.10
2020,02,27,10,56,-19.10
2020,02,27,10,57,-19.10
2020,02,27,10,58,-19.10
2020,02,27,10,59,-19.00
2020,02,27,11,00,-19.00
2020,02,27,11,01,-19.00
2020,02,27,11,02,-19.00
2020,02,27,11,03,-19.10
2020,02,27,11,04,-19.10
2020,02,27,11,05,-19.10
2020,02,27,11,06,-19.10
2020,02,27,11,07,-19.10
2020,02,27,11,08,-19.10
2020,02,27,11,09,-19.10
2020,02,27,11,10,-19.10
2020,02,27,11,11,-19.10
2020,02,27,11,12,-19.10
2020,02,27,11,13,-19.10
2020,02,27,11,14,-19.10
2020,02,27,11,15,-19.10
2020,02,27,11,16,-19.10
2020,02,27,11,17,-19.10
2020,02,27,11,18,-19.10
2020,02,27,11,19,-19.10
2020,02,27,11,20,-19.10
2020,02,27,11,21,-19.10
2020,02,27,11,22,-19.10
2020,02,27,11,23,-19.10
2020,02,27,11,24,-19.10
2020,02,27,11,25,-19.10
2020,02,27,11,26,-19.10
2020,02,27,11,27,-19.10
2020,02,27,11,28,-19.10
2020,02,27,11,29,-19.10
2020,02,27,11,30,-19.10
2020,02,27,11,31,-19.00
2020,02,27,11,32,-19.00
2020,02,27,11,33,-19.00
2020,02,27,11,34,-19.00
2020,02,27,11,35,-19.00
2020,02,27,11,36,-19.00
2020,02,27,11,37,-18.90
2020,02,27,11,38,-18.90
2020,02,27,11,39,-18.90
2020,02,27,11,40,-18.90
2020,02,27,11,41,-18.90
2020,02,27,11,42,-18.90
2020,02,27,11,43,-18.80
2020,02,27,11,44,-18.80
2020,02,27,11,45,-18.80
2020,02,27,11,46,-18.80
2020,02,27,11,47,-18.80
2020,02,27,11,48,-18.80
2020,02,27,11,49,-18.70
2020,02,27,11,50,-18.70
2020,02,27,11,51,-18.70
2020,02,27,11,52,-18.70
2020,02,27,11,53,-18.70
2020,02,27,11,54,-18.70
2020,02,27,11,55,-18.70
2020,02,27,11,56,-18.70
2020,02,27,11,57,-18.80
2020,02,27,11,58,-18.80
2020,02,27,11,59,-18.80
2020,02,27,12,00,-18.80
2020,02,27,12,01,-18.80
2020,02,27,12,02,-18.80
2020,02,27,12,03,-18.80
2020,02,27,12,04,-18.80
2020,02,27,12,05,-18.80
2020,02,27,12,06,-18.80
2020,02,27,12,07,-18.80
2020,02,27,12,08,-18.80
2020,02,27,12,09,-18.80
2020,02,27,12,10,-18.70
2020,02,27,12,11,-18.70
2020,02,27,12,12,-18.70
2020,02,27,12,13,-18.70
2020,02,27,12,14,-18.70
2020,02,27,12,15,-18.70
2020,02,27,12,16,-18.70
2020,02,27,12,17,-18.70
2020,02,27,12,18,-18.70
2020,02,27,12,19,-18.80
2020,02,27,12,20,-18.80
2020,02,27,12,21,-18.80
2020,02,27,12,22,-18.80
2020,02,27,12,23,-18.80
2020,02,27,12,24,-18.80
2020,02,27,12,25,-18.80
2020,02,27,12,26,-18.80
2020,02,27,12,27,-18.80
2020,02,27,12,28,-18.80
2020,02,27,12,29,-18.80
2020,02,27,12,30,-18.80
2020,02,27,12,31,-18.70
2020,02,27,12,32,-18.70
2020,02,27,12,33,-18.70
2020,02,27,12,34,-18.70
2020,02,27,12,35,-18.70
2020,02,27,12,36,-18.70
2020,02,27,12,37,-18.60
2020,02,27,12,38,-18.60
2020,02,27,12,39,-18.60
2020,02,27,12,40,-18.60
2020,02,27,12,41,-18.60
2020,02,27,12,42,-18.60
2020,02,27,12,43,-18.60
2020,02,27,12,44,-18.60
2020,02,27,12,45,-18.50
2020,02,27,12,46,-18.50
2020,02,27,12,47,-18.50
2020,02,27,12,48,-18.40
2020,02,27,12,49,-18.40
2020,02,27,12,50,-18.40
2020,02,27,12,51,-18.40
2020,02,27,12,52,-18.40
2020,02,27,12,53,-18.40
2020,02,27,12,54,-18.40
2020,02,27,12,55,-18.40
2020,02,27,12,56,-18.40
2020,02,27,12,57,-18.40
2020,02,27,12,58,-18.40
2020,02,27,12,59,-18.30
2020,02,27,13,00,-18.30
2020,02,27,13,01,-18.30
2020,02,27,13,02,-18.30
2020,02,27,13,03,-18.20
2020,02,27,13,04,-18.20
2020,02,27,13,05,-18.20
2020,02,27,13,06,-18.20
2020,02,27,13,07,-18.20
2020,02,27,13,08,-18.20
2020,02,27,13,09,-18.20
2020,02,27,13,10,-18.10
2020,02,27,13,11,-18.10
2020,02,27,13,12,-18.10
2020,02,27,13,13,-18.10
2020,02,27,13,14,-18.10
2020,02,27,13,15,-18.10
2020,02,27,13,16,-18.00
2020,02,27,13,17,-18.00
2020,02,27,13,18,-18.00
2020,02,27,13,19,-18.00
2020,02,27,13,20,-17.90
2020,02,27,13,21,-17.90
2020,02,27,13,22,-17.90
2020,02,27,13,23,-17.90
2020,02,27,13,24,-17.80
2020,02,27,13,25,-17.80
2020,02,27,13,26,-17.80
2020,02,27,13,27,-17.80
2020,02,27,13,28,-17.80
2020,02,27,13,29,-17.80
2020,02,27,13,30,-17.70
2020,02,27,13,31,-17.70
2020,02,27,13,32,-17.70
2020,02,27,13,33,-17.70
2020,02,27,13,34,-17.70
2020,02,27,13,35,-17.70
2020,02,27,13,36,-17.70
2020,02,27,13,37,-17.70
2020,02,27,13,38,-17.70
2020,02,27,13,39,-17.70
2020,02,27,13,40,-17.70
2020,02,27,13,41,-17.70
2020,02,27,13,42,-17.70
2020,02,27,13,43,-17.70
2020,02,27,13,44,-17.60
2020,02,27,13,45,-17.60
2020,02,27,13,46,-17.60
2020,02,27,13,47,-17.60
2020,02,27,13,48,-17.50
2020,02,27,13,49,-17.50
2020,02,27,13,50,-17.40
2020,02,27,13,51,-17.40
2020,02,27,13,52,-17.40
2020,02,27,13,53,-17.40
2020,02,27,13,54,-17.30
2020,02,27,13,55,-17.30
2020,02,27,13,56,-17.30
2020,02,27,13,57,-17.30
2020,02,27,13,58,-17.30
2020,02,27,13,59,-17.20
2020,02,27,14,00,-17.20
2020,02,27,14,01,-17.20
2020,02,27,14,02,-17.20
2020,02,27,14,03,-17.10
2020,02,27,14,04,-17.10
2020,02,27,14,05,-17.10
2020,02,27,14,06,-17.10
2020,02,27,14,07,-17.10
2020,02,27,14,08,-17.10
2020,02,27,14,09,-17.00
2020,02,27,14,10,-17.00
2020,02,27,14,11,-17.00
2020,02,27,14,12,-17.00
2020,02,27,14,13,-17.00
2020,02,27,14,14,-17.00
2020,02,27,14,15,-17.00
2020,02,27,14,16,-17.00
2020,02,27,14,17,-17.00
2020,02,27,14,18,-16.90
2020,02,27,14,19,-16.90
2020,02,27,14,20,-17.00
2020,02,27,14,21,-17.00
2020,02,27,14,22,-17.00
2020,02,27,14,23,-17.00
2020,02,27,14,24,-17.00
2020,02,27,14,25,-17.00
2020,02,27,14,26,-17.00
2020,02,27,14,27,-17.00
2020,02,27,14,28,-17.00
2020,02,27,14,29,-17.00
2020,02,27,14,30,-17.00
2020,02,27,14,31,-17.00
2020,02,27,14,32,-17.00
2020,02,27,14,33,-17.00
2020,02,27,14,34,-17.00
2020,02,27,14,35,-17.00
2020,02,27,14,36,-17.00
2020,02,27,14,37,-17.00
2020,02,27,14,38,-17.00
2020,02,27,14,39,-17.00
2020,02,27,14,40,-17.00
2020,02,27,14,41,-17.00
2020,02,27,14,42,-16.90
2020,02,27,14,43,-16.90
2020,02,27,14,44,-16.90
2020,02,27,14,45,-16.90
2020,02,27,14,46,-16.90
2020,02,27,14,47,-16.90
2020,02,27,14,48,-16.90
2020,02,27,14,49,-16.90
2020,02,27,14,50,-16.90
2020,02,27,14,51,-16.90
2020,02,27,14,52,-16.90
2020,02,27,14,53,-16.90
2020,02,27,14,54,-16.90
2020,02,27,14,55,-16.80
2020,02,27,14,56,-16.80
2020,02,27,14,57,-16.80
2020,02,27,14,58,-16.80
2020,02,27,14,59,-16.80
2020,02,27,15,00,-16.80
2020,02,27,15,01,-16.80
2020,02,27,15,02,-16.80
2020,02,27,15,03,-16.70
2020,02,27,15,04,-16.70
2020,02,27,15,05,-16.70
2020,02,27,15,06,-16.70
2020,02,27,15,07,-16.70
2020,02,27,15,08,-16.70
2020,02,27,15,09,-16.70
2020,02,27,15,10,-16.70
2020,02,27,15,11,-16.70
2020,02,27,15,12,-16.70
2020,02,27,15,13,-16.70
2020,02,27,15,14,-16.70
2020,02,27,15,15,-16.70
2020,02,27,15,16,-16.70
2020,02,27,15,17,-16.80
2020,02,27,15,18,-16.80
2020,02,27,15,19,-16.80
2020,02,27,15,20,-16.80
2020,02,27,15,21,-16.70
2020,02,27,15,22,-16.70
2020,02,27,15,23,-16.70
2020,02,27,15,24,-16.70
2020,02,27,15,25,-16.70
2020,02,27,15,26,-16.70
2020,02,27,15,27,-16.70
2020,02,27,15,28,-16.70
2020,02,27,15,29,-16.70
2020,02,27,15,30,-16.70
2020,02,27,15,31,-16.70
2020,02,27,15,32,-16.70
2020,02,27,15,33,-16.70
2020,02,27,15,34,-16.80
2020,02,27,15,35,-16.80
2020,02,27,15,36,-16.80
2020,02,27,15,37,-16.80
2020,02,27,15,38,-16.80
2020,02,27,15,39,-16.90
2020,02,27,15,40,-16.90
2020,02,27,15,41,-16.90
2020,02,27,15,42,-16.90
2020,02,27,15,43,-16.90
2020,02,27,15,44,-16.90
2020,02,27,15,45,-16.90
2020,02,27,15,46,-16.90
2020,02,27,15,47,-16.90
2020,02,27,15,48,-16.90
2020,02,27,15,49,-16.90
2020,02,27,15,50,-16.90
2020,02,27,15,51,-16.90
2020,02,27,15,52,-16.90
2020,02,27,15,53,-16.90
2020,02,27,15,54,-16.80
2020,02,27,15,55,-16.80
2020,02,27,15,56,-16.80
2020,02,27,15,57,-16.80
2020,02,27,15,58,-16.80
2020,02,27,15,59,-16.80
2020,02,27,16,00,-16.80
2020,02,27,16,01,-16.70
2020,02,27,16,02,-16.70
2020,02,27,16,03,-16.70
2020,02,27,16,04,-16.60
2020,02,27,16,05,-16.60
2020,02,27,16,06,-16.60
2020,02,27,16,07,-16.60
2020,02,27,16,08,-16.50
2020,02,27,16,09,-16.50
2020,02,27,16,10,-16.50
2020,02,27,16,11,-16.50
2020,02,27,16,12,-16.50
2020,02,27,16,13,-16.50
2020,02,27,16,14,-16.50
2020,02,27,16,15,-16.50
2020,02,27,16,16,-16.50
2020,02,27,16,17,-16.50
2020,02,27,16,18,-16.50
2020,02,27,16,19,-16.50
2020,02,27,16,20,-16.50
2020,02,27,16,21,-16.50
2020,02,27,16,22,-16.50
2020,02,27,16,23,-16.50
2020,02,27,16,24,-16.50
2020,02,27,16,25,-16.40
2020,02,27,16,26,-16.40
2020,02,27,16,27,-16.40
2020,02,27,16,28,-16.40
2020,02,27,16,29,-16.40
2020,02,27,16,30,-16.40
2020,02,27,16,31,-16.50
2020,02,27,16,32,-16.50
2020,02,27,16,33,-16.50
2020,02,27,16,34,-16.50
2020,02,27,16,35,-16.40
2020,02,27,16,36,-16.50